COSMOS 2251 DEB, 35669

Orbit data source: Space-Track

COSMOS 2251 DEB, 35669 is space debris in LEO originally from a launch on Wed, 16 Jun 1993 UTC launched from the Plesetsk Missile And Space Complex (PKMTR). The debris from Iridium 33, an American commercial communications satellite, has been tracked extensively since its accidental collision with the defunct Russian satellite Cosmos 2251 in 2009. This event, occurring at high speed in low Earth orbit (LEO), generated thousands of pieces of space debris, significantly increasing the risk of further collisions. The Iridium 33 debris cloud has impacted space traffic management and orbital debris mitigation strategies, making it a subject of ongoing study in space situational awareness.

Loading next visibility...
Identifier
35669, 1993-036APL
Orbit
LEO
Country
Flag of CISCIS
Related business
Manufacturer
Unknown
Mission
Spacecraft
Bus & Motor
Unknown
Mass
Unknown
Launch date (UTC)
1993-06-16 (33 years ago)
Launch vehicle
Unknown
Launch site
Plesetsk Missile And Space Complex (PKMTR)
Object type
Payload
Rocket body
Debris
Shape & HBR
Unknown shape, 0.1 m
Radar Cross Section
Small (<0.1 m²)

Expand to show TLE details & history
Last TLE update: 2 days ago

TLE from 2 days ago
0 COSMOS 2251 DEB
1 35669U 93036APL 26252.19623127  .00000721  00000-0  63587-3 0  9990
2 35669  73.8580  77.9553 0385350 143.0614 219.7713 13.57640520644592
Epoch: 2026-09-09T04:42Z
TLE epoch observation values (Epoch: 2026-09-09T04:42:34.381Z)
Latitude
-0.00003°
Longitude
19.06027°
Altitude
1,270.985 km
Speed
7.111 km/s
True Right ascension
05h 11m 49s
True Declination
0° 00' 00"
Sunlit
Object was in daylight at epoch
Visualization orbit readout
Latitude
Unknown
Longitude
Unknown
Altitude
Unknown
Speed
Unknown
Apparent Right ascension
Unknown
Apparent Declination
Unknown
Sunlit
N/A
Visualization observer readout
Local Sidereal Time
23:25:19
Azimuth
Unknown
Elevation
Unknown
Doppler factor
Unknown
Orbital elements
Apogee altitude
1,327.936 km
Perigee altitude
756.066 km
Semi-major axis
7,420.138 km
Eccentricity
0.03854
Inclination
73.858°
RAAN
77.9553°
Arg. of periapsis
143.0614°
True anomaly
217.04842°
Mean anomaly
219.7713°
Eccentric anomaly
218.39988°
Mean motion
3.39567 °/min
Orbital period
106.02 mins
BSTAR
0.00063587
Loading maneuver chart data...
Computing Atmospheric mass density...

Documentation

Showing up to 5 results
|